TimeCDT,TemperatureF,Dew PointF,Humidity,Sea Level PressureIn,VisibilityMPH,Wind Direction,Wind SpeedMPH,Gust SpeedMPH,PrecipitationIn,Events,Conditions,WindDirDegrees,DateUTC
12:15 AM,39.7,32.0,74,30.06,10.0,SSE,4.6,-,N/A,,Clear,160,2012-10-09 05:15:00
12:35 AM,39.2,32.0,75,30.06,10.0,SSE,4.6,-,N/A,,Clear,160,2012-10-09 05:35:00
12:55 AM,39.9,32.0,73,30.06,10.0,South,5.8,-,N/A,,Clear,170,2012-10-09 05:55:00
1:15 AM,40.6,33.3,75,30.06,10.0,South,6.9,-,N/A,,Clear,170,2012-10-09 06:15:00
1:35 AM,41.2,33.4,74,30.06,10.0,South,5.8,-,N/A,,Unknown,180,2012-10-09 06:35:00
1:55 AM,41.0,33.3,74,30.06,10.0,South,5.8,-,N/A,,Unknown,180,2012-10-09 06:55:00
2:15 AM,42.3,33.4,71,30.06,10.0,South,6.9,-,N/A,,Unknown,190,2012-10-09 07:15:00
2:35 AM,41.9,33.4,72,30.05,10.0,South,6.9,-,N/A,,Unknown,190,2012-10-09 07:35:00
2:55 AM,41.5,33.3,72,30.05,10.0,SSW,6.9,-,N/A,,Clear,200,2012-10-09 07:55:00
3:15 AM,41.4,33.8,74,30.05,10.0,South,6.9,-,N/A,,Clear,190,2012-10-09 08:15:00
3:35 AM,40.6,33.4,75,30.05,10.0,South,6.9,-,N/A,,Clear,190,2012-10-09 08:35:00
3:55 AM,39.9,33.4,78,30.05,10.0,South,6.9,-,N/A,,Clear,190,2012-10-09 08:55:00
4:15 AM,39.9,33.8,79,30.05,10.0,South,6.9,-,N/A,,Clear,170,2012-10-09 09:15:00
4:35 AM,39.7,34.0,80,30.04,10.0,South,8.1,-,N/A,,Clear,180,2012-10-09 09:35:00
4:55 AM,40.6,34.3,78,30.04,10.0,South,8.1,-,N/A,,Clear,180,2012-10-09 09:55:00
5:15 AM,41.0,34.7,78,30.04,10.0,South,8.1,-,N/A,,Clear,190,2012-10-09 10:15:00
5:35 AM,40.6,34.7,79,30.04,10.0,South,6.9,-,N/A,,Clear,180,2012-10-09 10:35:00
5:55 AM,40.1,34.3,80,30.04,10.0,South,6.9,-,N/A,,Clear,190,2012-10-09 10:55:00
6:15 AM,40.1,34.5,80,30.05,10.0,SSW,6.9,-,N/A,,Clear,200,2012-10-09 11:15:00
6:35 AM,40.1,34.5,80,30.05,10.0,South,6.9,-,N/A,,Clear,180,2012-10-09 11:35:00
6:55 AM,39.9,34.7,82,30.05,10.0,South,8.1,-,N/A,,Clear,190,2012-10-09 11:55:00
7:15 AM,40.1,34.9,82,30.05,10.0,South,5.8,-,N/A,,Clear,190,2012-10-09 12:15:00
7:35 AM,41.0,35.6,81,30.05,10.0,South,6.9,-,N/A,,Clear,190,2012-10-09 12:35:00
7:55 AM,43.2,36.3,77,30.06,7.0,South,8.1,-,N/A,,Clear,190,2012-10-09 12:55:00
8:15 AM,45.7,37.2,72,30.05,10.0,SSW,10.4,-,N/A,,Clear,200,2012-10-09 13:15:00
8:35 AM,47.7,37.9,69,30.04,10.0,SSW,12.7,-,N/A,,Clear,200,2012-10-09 13:35:00
8:55 AM,49.5,38.1,65,30.04,10.0,SSW,12.7,-,N/A,,Clear,200,2012-10-09 13:55:00
9:15 AM,50.9,38.5,62,30.04,10.0,SSW,11.5,17.3,N/A,,Clear,210,2012-10-09 14:15:00
9:35 AM,52.5,38.7,59,30.03,10.0,SSW,16.1,20.7,N/A,,Clear,200,2012-10-09 14:35:00
9:55 AM,54.1,38.8,56,30.03,10.0,SSW,16.1,23.0,N/A,,Clear,210,2012-10-09 14:55:00
10:15 AM,55.8,39.4,54,30.03,10.0,SSW,17.3,20.7,N/A,,Clear,200,2012-10-09 15:15:00
10:35 AM,57.2,39.6,52,30.01,10.0,SSW,19.6,28.8,N/A,,Clear,210,2012-10-09 15:35:00
10:55 AM,58.1,39.4,50,30.01,10.0,SSW,20.7,25.3,N/A,,Clear,200,2012-10-09 15:55:00
11:15 AM,59.2,40.1,49,30.01,10.0,SSW,16.1,-,N/A,,Clear,200,2012-10-09 16:15:00
11:35 AM,59.9,40.3,48,30.00,10.0,SSW,19.6,25.3,N/A,,Clear,210,2012-10-09 16:35:00
11:55 AM,60.8,39.7,46,29.99,10.0,SSW,18.4,26.5,N/A,,Clear,200,2012-10-09 16:55:00
12:15 PM,61.5,40.5,46,29.98,10.0,SSW,19.6,24.2,N/A,,Clear,210,2012-10-09 17:15:00
12:35 PM,61.7,39.4,44,29.97,10.0,South,19.6,25.3,N/A,,Clear,190,2012-10-09 17:35:00
12:55 PM,62.1,39.2,43,29.96,10.0,SSW,17.3,24.2,N/A,,Clear,210,2012-10-09 17:55:00
1:15 PM,63.3,40.5,43,29.94,10.0,South,19.6,25.3,N/A,,Clear,190,2012-10-09 18:15:00
1:35 PM,63.5,40.3,43,29.93,10.0,SSW,19.6,24.2,N/A,,Clear,200,2012-10-09 18:35:00
1:55 PM,63.3,39.4,41,29.93,10.0,SSW,20.7,27.6,N/A,,Clear,200,2012-10-09 18:55:00
2:15 PM,64.0,39.2,40,29.92,10.0,SSW,19.6,24.2,N/A,,Clear,210,2012-10-09 19:15:00
2:35 PM,63.5,38.8,40,29.91,10.0,SSW,17.3,25.3,N/A,,Clear,200,2012-10-09 19:35:00
2:55 PM,63.0,39.0,41,29.91,10.0,SSW,23.0,27.6,N/A,,Clear,200,2012-10-09 19:55:00
3:15 PM,62.4,39.4,43,29.90,10.0,South,18.4,27.6,N/A,,Clear,190,2012-10-09 20:15:00
3:35 PM,62.2,39.4,43,29.90,10.0,South,16.1,25.3,N/A,,Clear,180,2012-10-09 20:35:00
3:55 PM,62.6,39.4,42,29.90,10.0,SW,19.6,25.3,N/A,,Clear,220,2012-10-09 20:55:00
4:15 PM,62.2,39.4,43,29.90,10.0,SSW,18.4,25.3,N/A,,Clear,210,2012-10-09 21:15:00
4:35 PM,61.3,39.7,45,29.90,10.0,South,18.4,25.3,N/A,,Clear,190,2012-10-09 21:35:00
4:55 PM,61.9,39.9,44,29.90,10.0,SSW,17.3,24.2,N/A,,Clear,210,2012-10-09 21:55:00
5:15 PM,60.8,39.9,46,29.90,10.0,SSW,13.8,21.9,N/A,,Clear,200,2012-10-09 22:15:00
5:35 PM,60.1,40.3,48,29.89,10.0,SSW,12.7,17.3,N/A,,Clear,200,2012-10-09 22:35:00
5:55 PM,58.6,40.8,52,29.89,10.0,South,10.4,17.3,N/A,,Clear,190,2012-10-09 22:55:00
6:15 PM,56.8,41.0,55,29.89,10.0,SSW,8.1,-,N/A,,Clear,200,2012-10-09 23:15:00
6:35 PM,55.4,41.0,58,29.90,10.0,SSW,8.1,-,N/A,,Clear,200,2012-10-09 23:35:00
6:55 PM,53.8,41.2,62,29.90,10.0,SSW,6.9,-,N/A,,Clear,200,2012-10-09 23:55:00
7:15 PM,52.7,41.2,65,29.89,10.0,South,8.1,-,N/A,,Clear,180,2012-10-10 00:15:00
7:35 PM,53.6,41.9,65,29.90,10.0,SSW,8.1,-,N/A,,Clear,200,2012-10-10 00:35:00
7:55 PM,53.8,41.9,64,29.89,10.0,South,9.2,-,N/A,,Clear,190,2012-10-10 00:55:00
8:15 PM,54.1,41.5,62,29.89,10.0,South,9.2,-,N/A,,Clear,190,2012-10-10 01:15:00
8:35 PM,54.0,41.5,63,29.88,10.0,SSW,10.4,-,N/A,,Clear,200,2012-10-10 01:35:00
8:55 PM,54.5,41.4,61,29.88,10.0,SSW,13.8,-,N/A,,Clear,200,2012-10-10 01:55:00
9:15 PM,54.5,41.4,61,29.88,10.0,SSW,12.7,18.4,N/A,,Clear,200,2012-10-10 02:15:00
9:35 PM,54.5,41.4,61,29.87,10.0,SSW,12.7,18.4,N/A,,Clear,200,2012-10-10 02:35:00
9:55 PM,54.1,41.9,63,29.88,10.0,SSW,12.7,-,N/A,,Scattered Clouds,210,2012-10-10 02:55:00
10:15 PM,54.3,42.1,63,29.87,10.0,SSW,12.7,18.4,N/A,,Mostly Cloudy,210,2012-10-10 03:15:00
10:35 PM,54.5,42.1,63,29.88,10.0,SSW,15.0,-,N/A,,Overcast,210,2012-10-10 03:35:00
10:55 PM,54.5,42.3,63,29.88,10.0,SW,16.1,-,N/A,,Overcast,230,2012-10-10 03:55:00
11:15 PM,51.8,41.4,68,29.91,10.0,NNW,15.0,23.0,N/A,,Overcast,330,2012-10-10 04:15:00
11:35 PM,47.1,41.9,82,29.92,10.0,NNW,12.7,-,N/A,Rain,Light Rain,330,2012-10-10 04:35:00
11:55 PM,46.4,41.2,82,29.93,10.0,NW,11.5,18.4,N/A,Rain,Light Rain,320,2012-10-10 04:55:00